Location: Knowlton
(51.2333°N, 1.2667°E)
Time: 04:47:32
(UTC+00:00)

Cosmos 2151 - Pass Details

Date: 18 April 2021
Orbit: 582 x 600 km, 82.5° (Epoch: 06 May)

Event Time Altitude Azimuth Distance (km) Brightness Sun altitude
Rises 20:36:22 0° 351° (N) 2,863 7.3 -14.4°
Reaches altitude 10° 20:38:37 10° 354° (N) 1,955 6.3 -14.7°
Maximum altitude 20:42:55 66° 77° (ENE) 659 3.0 -15.2°
Enters shadow 20:45:17 26° 154° (SSE) 1,206 4.0 -15.5°
